Change the Weather History Date:

Friday, August 9, 2013

  Actual Average Record
Temperature  
Mean Temperature 62 °F 58 °F  
Max Temperature 69 °F 68 °F 87 °F (1917)
Min Temperature 54 °F 49 °F 35 °F (1969)
Degree Days  
Heating Degree Days 3 7  
Month to date heating degree days 5 56  
Since 1 June heating degree days 145 324  
Since 1 July heating degree days 74 164  
Cooling Degree Days 0 0  
Month to date cooling degree days 24 0  
Year to date cooling degree days 226 55  
Since 1 June cooling degree days 213 54  
Growing Degree Days 14 (Base 50)    
Moisture  
Dew Point 47 °F    
Average Humidity 53    
Maximum Humidity 78    
Minimum Humidity 34    
Precipitation  
Precipitation 0.00 in 0.07 in 1.18 in (1963)
Month to date precipitation T 0.62  
Year to date precipitation 3.78 6.31  
Snow  
Snow 0.00 in 0.00 in 0.00 in (2002)
Month to date snowfall 0.0 0.0  
Since 1 June snowfall 0.0 0.0  
Since 1 July snowfall 0.0 0.0  
Snow Depth 0.00 in    
Sea Level Pressure  
Sea Level Pressure 29.66 in    
Wind  
Wind Speed 2 mph (NNE)    
Max Wind Speed 8 mph    
Max Gust Speed -    
Visibility 7 miles    
Events Rain    
T = Trace of Precipitation, MM = Missing Value Source: NWS Daily Summary

Daily Weather History Graph

Daily Weather History Graph

Search for Another Location

Airport or City:

Trip Planner

Search our weather history database for the weather conditions in past years. The results will help you decide how hot, cold, wet, or windy it might be!

Date:

Astronomy

Aug. 09, 2013 Rise Set
Actual Time 5:19 AM AKDT 10:31 PM AKDT
Civil Twilight 4:02 AM AKDT 11:46 PM AKDT
Nautical Twilight Sun does not rise 1:24 AM AKDT
Astronomical Twilight Sun does not rise Sun does not rise
Moon 9:51 AM AKDT (8/9) 10:00 PM AKDT (8/9)
Length of Visible Light 19h 44m
Length of Day
17h 11m
Waxing Crescent, 8% of the Moon is Illuminated
Aug 9
Waxing Crescent
Aug 14
First Quarter
Aug 20
Full
Aug 28
Last Quarter
Sep 5
New

Hourly Weather History & Observations

Time (AKDT) Temp. Dew Point Humidity Pressure Visibility Wind Dir Wind Speed Gust Speed Precip Events Conditions
12:53 AM 64.0 °F 48.0 °F 56% 29.65 in 10.0 mi Calm Calm - N/A   Mostly Cloudy
1:53 AM 61.0 °F 48.0 °F 62% 29.66 in 10.0 mi Calm Calm - N/A   Mostly Cloudy
2:53 AM 57.9 °F 45.0 °F 62% 29.67 in 10.0 mi North 3.5 mph - N/A   Mostly Cloudy
3:53 AM 57.9 °F 46.0 °F 65% 29.68 in 10.0 mi Calm Calm - N/A   Mostly Cloudy
4:53 AM 55.0 °F 45.0 °F 69% 29.68 in 10.0 mi NNE 3.5 mph - N/A   Mostly Cloudy
5:53 AM 55.0 °F 45.0 °F 69% 29.67 in 10.0 mi Calm Calm - N/A   Mostly Cloudy
6:53 AM 55.9 °F 45.0 °F 67% 29.66 in 10.0 mi Calm Calm - N/A   Overcast
7:53 AM 61.0 °F 46.0 °F 58% 29.66 in 10.0 mi NW 3.5 mph - N/A   Overcast
8:53 AM 64.0 °F 45.0 °F 50% 29.64 in 6.0 mi NNW 8.1 mph - N/A   Smoke
9:53 AM 64.9 °F 46.0 °F 50% 29.64 in 6.0 mi North 4.6 mph - N/A   Smoke
10:53 AM 62.1 °F 46.0 °F 56% 29.65 in 6.0 mi SSE 5.8 mph - N/A   Smoke
11:53 AM 64.9 °F 45.0 °F 48% 29.66 in 5.0 mi WSW 3.5 mph - N/A   Smoke
12:53 PM 64.9 °F 46.0 °F 50% 29.65 in 4.0 mi East 3.5 mph - N/A   Smoke
1:53 PM 66.0 °F 48.9 °F 54% 29.66 in 5.0 mi Variable 3.5 mph - N/A   Smoke
2:53 PM 68.0 °F 45.0 °F 43% 29.67 in 5.0 mi ESE 3.5 mph - N/A   Smoke
3:53 PM 69.1 °F 46.9 °F 45% 29.66 in 5.0 mi ENE 4.6 mph - N/A   Smoke
4:53 PM 71.1 °F 46.0 °F 41% 29.65 in 5.0 mi East 3.5 mph - N/A   Smoke
5:53 PM 70.0 °F 46.0 °F 42% 29.65 in 5.0 mi East 3.5 mph - N/A   Smoke
6:53 PM 71.1 °F 46.0 °F 41% 29.64 in 5.0 mi Calm Calm - N/A   Smoke
7:53 PM 69.1 °F 51.1 °F 53% 29.64 in 5.0 mi Calm Calm - N/A   Smoke
8:53 PM 69.1 °F 46.9 °F 45% 29.65 in 5.0 mi West 3.5 mph - N/A   Smoke
9:53 PM 69.1 °F 46.9 °F 45% 29.67 in 5.0 mi WSW 3.5 mph - 0.00 in Rain Light Rain
10:53 PM 61.0 °F 54.0 °F 78% 29.68 in 5.0 mi East 5.8 mph - 0.00 in Rain Light Rain
11:53 PM 61.0 °F 51.1 °F 70% 29.69 in 6.0 mi NW 4.6 mph - 0.01 in   Smoke